Back to catalog

DMSP 5D-2 F12

USA 106

AliveWeatherSSO
NORAD 23233·PAYLOAD·🇺🇸 United States

Launched Aug 29, 1994 from Vandenberg Space Force Base

Loading…

Next Passes (next 24 hours)

TLE

FreshSource: Space-Track

Epoch: Sep 14, 2026, 14:05 UTC

1 23233U 94057A   26257.58705729  .00000024  00000-0  33746-4 0  9996
2 23233  98.6598 305.4168 0011301  22.5388 337.6280 14.16082442654625

Track DMSP 5D-2 F12 in real time with AllMySat

Download on the App Store